Location: Keppel Henge
(44.7900°N, 80.9447°W)
Time: 09:53:22
(UTC-04:00)

Tiangong 1 - Pass Details

Date: 14 October 2017
Orbit: 293 x 320 km, 42.8° (Epoch: 21 October)

Event Time Altitude Azimuth Distance (km) Brightness Sun altitude
Rises 20:03:23 0° 272° (W) 2,044 6.7 -15.5°
Reaches altitude 10° 20:05:38 10° 255° (WSW) 1,206 4.7 -15.9°
Maximum altitude 20:07:46 21° 203° (SSW) 770 2.8 -16.3°
Enters shadow 20:08:36 18° 176° (S) 848 2.7 -16.4°
